Location: Corralito
(14.1667°N, 87.1833°W)
Time: 23:05:54
(UTC+00:00)

STARLINK-1341 - Pass Details

Date: 07 June 2020
Orbit: 548 x 551 km, 53.0° (Epoch: 11 July)

Event Time Altitude Azimuth Distance (km) Brightness Sun altitude
Rises 01:27:33 0° 215° (SW) 2,700 7.2 -16.4°
Reaches altitude 10° 01:29:47 10° 215° (SW) 1,808 6.3 -16.9°
Maximum altitude 01:33:54 90° 302° (WNW) 549 3.5 -17.8°
Drops below altitude 10° 01:38:06 - 36° (NE) 1,847 6.2 -18.6°
Sets 01:40:14 0° 36° (NE) 2,702 7.1 -19.1°
